SCP
-0 -0 -0 0 0 0 0 -0 0 0 0 0 0 0 0 0 0 0 0 0 -0 -1 -0 -0 -0 -0 0 0 -0 -0 -0 -1 -1 -0 -0 -0 -0 -0 -0 -0 -0 -0 -0 -0 -0 -0 -0 0 -0
0 0 -0 0 0 0 -0 0 0 0 0 0 0 0 0 0 0 0 0 0 -0 -0 -0 -0 -0 -0 -0 0 -0 -0 -1 -1 -1 -0 -0 -0 -0 -0 -0 -0 -0 -0 -0 -0 -0 -0 -0 -0 0
0 0 0 0 0 0 0 0 0 0 0 0 0 0 0 0 0 0 0 0 -0 -0 -0 -0 -0 -0 -0 -0 -0 -0 -1 -1 -0 -0 -0 -0 -0 -0 -0 -0 -0 -0 -0 -0 -0 -0 -0 -0 0
0 0 0 0 0 0 0 0 0 0 0 0 0 0 0 0 0 0 0 -0 -0 -0 -0 -0 -0 -0 -0 -0 -0 -0 -1 -1 -0 -0 -0 -0 -0 -0 -0 -0 -0 -0 -0 0 0 -0 -0 0 0
0 0 0 0 0 0 0 0 0 0 0 0 0 0 0 0 0 0 0 0 -0 -0 -0 -0 -0 -0 -0 -1 -0 -0 -1 -0 -0 -0 -0 -0 -0 -0 -0 0 0 0 0 0 0 -0 -0 -0 -0
0 0 0 0 0 0 0 0 0 0 0 0 0 0 0 0 0 0 0 0 0 -0 -0 -0 -0 -0 -0 -1 -1 -0 -0 -0 -0 -0 -0 -0 -0 -0 0 0 -0 0 0 0 0 -0 -0 -0 -0
0 0 0 0 0 0 0 0 0 0 0 0 0 0 0 0 0 0 0 0 0 0 0 0 -0 -0 -0 -0 -0 -0 -0 -0 -0 -0 -0 -0 -0 -0 -0 0 0 0 0 0 0 0 0 0 0
0 0 0 0 0 0 0 0 0 0 0 -0 0 0 0 0 0 0 0 0 0 0 0 0 -0 0 -0 -0 -0 -0 -0 -0 -0 -0 -0 -0 -0 -0 -0 0 0 0 0 0 0 0 0 0 0
0 0 0 0 0 0 0 0 0 0 0 0 0 0 0 0 -0 -0 0 0 0 0 0 0 0 -0 -0 -0 -0 -0 -0 -0 -0 -0 -0 -0 0 0 0 0 -0 0 0 0 0 0 0 0 0
0 0 0 0 0 0 0 0 0 0 0 0 0 0 0 0 0 0 0 0 0 0 0 0 0 0 -0 0 -0 -0 -0 -0 -0 0 -0 0 -0 0 0 -0 -0 -0 0 0 0 0 0 -0 -0
0 0 0 0 0 0 0 0 0 0 0 0 0 0 0 0 0 0 0 0 0 0 0 0 0 0 0 0 0 0 0 0 0 -0 -0 0 -0 0 -0 -0 -0 0 0 0 0 0 0 -0 -0
0 0 0 0 0 0 0 0 0 0 0 0 0 0 0 0 0 0 1 1 0 0 0 0 0 0 0 0 0 0 0 0 0 -0 -0 0 0 0 -0 0 -0 -0 0 -0 -0 -0 -0 -0 -0
0 0 0 0 0 0 0 0 0 0 0 0 0 0 0 0 0 0 0 1 1 0 0 0 0 1 1 1 0 0 0 0 0 0 -0 0 0 0 0 0 -0 0 -0 -0 -0 -0 -0 -0 -0
0 0 0 0 0 0 0 0 0 0 0 0 0 0 0 0 0 0 0 0 1 0 0 0 0 1 1 1 1 1 0 0 0 0 0 0 0 0 0 0 0 0 -0 -0 -0 -0 -0 -0 -0
0 0 0 0 0 0 0 0 0 0 0 0 0 0 0 0 0 0 0 0 0 0 0 0 1 1 1 1 1 1 0 0 0 0 0 0 0 0 0 0 0 0 0 0 0 0 -0 -0 -0
0 0 0 0 0 0 -0 0 0 0 0 0 0 0 0 0 0 0 0 0 0 0 0 1 1 1 1 1 1 1 1 1 0 0 0 0 0 0 0 0 0 0 0 0 0 0 0 0 0
0 0 0 0 0 0 0 0 0 0 0 0 0 0 0 0 0 0 0 0 0 0 1 1 1 1 2 2 2 2 2 1 1 0 0 0 0 0 0 0 0 0 0 0 0 0 0 0 0
0 0 0 0 0 0 0 0 0 0 0 0 0 0 0 0 0 0 0 0 0 0 1 2 2 1 2 3 4 2 2 2 1 1 0 0 0 0 0 0 0 0 0 0 0 0 0 0 0
0 0 0 0 0 0 0 0 0 0 0 0 0 0 0 0 0 0 0 0 0 0 1 2 2 2 3 3 3 3 2 2 2 1 1 1 0 0 0 0 0 0 0 0 0 0 0 0 0
0 0 0 0 0 0 0 0 0 0 0 0 0 0 0 0 0 0 0 0 0 0 1 2 1 3 3 3 3 5 4 3 2 2 1 1 0 1 0 0 0 0 0 0 0 0 0 0 0
0 0 0 0 0 0 0 0 0 0 0 0 0 0 0 0 0 0 0 0 0 0 1 2 1 3 2 2 3 4 3 3 3 2 2 2 1 1 0 0 1 1 0 0 1 0 0 0 0
0 0 0 0 0 0 0 0 0 0 0 0 -0 -0 0 0 0 0 0 0 0 0 2 2 2 3 2 2 2 2 3 2 3 3 3 2 1 1 1 1 0 1 1 1 1 1 0 0 0
0 0 0 0 0 0 0 0 0 0 -0 0 0 0 -0 -0 0 0 0 0 0 0 3 5 3 3 3 3 2 3 3 3 3 3 1 1 1 1 1 1 1 1 1 1 1 1 1 0 0
0 0 0 -0 0 0 0 0 0 0 0 0 0 -0 0 0 0 0 0 0 0 0 4 5 4 2 2 3 2 2 3 3 3 2 2 1 1 2 1 1 1 1 1 1 1 1 1 1 0
0 0 0 0 0 0 0 -0 0 0 0 0 0 0 0 -0 0 0 0 0 0 0 2 5 4 3 3 4 3 2 3 3 3 2 2 2 1 1 1 1 1 1 1 1 1 2 1 1 1
0 0 0 0 0 0 -0 0 0 0 0 0 0 0 0 0 0 0 0 0 0 0 0 4 2 4 3 4 4 3 3 4 4 3 3 2 1 1 2 2 2 1 1 1 1 2 2 2 1
0 0 0 0 0 0 -0 0 0 0 0 0 0 0 0 0 0 0 0 0 0 0 0 0 3 3 3 4 5 4 4 3 3 3 2 2 2 2 1 2 2 2 2 1 1 2 1 2 2
0 0 0 0 0 0 0 0 0 -0 0 0 0 0 0 0 0 0 0 0 0 0 0 0 2 3 3 4 5 5 4 4 3 3 3 2 2 2 1 2 1 2 2 2 1 1 1 1 1
0 0 0 0 0 0 0 0 -0 0 -0 -0 -0 0 0 0 0 0 0 0 0 0 0 0 0 3 4 4 5 6 6 4 4 4 3 2 3 2 2 2 2 2 2 2 2 1 1 1 1
0 0 0 0 0 0 -0 0 -0 -0 -0 -0 0 -0 0 0 0 0 0 0 0 0 0 0 0 1 4 4 5 7 8 7 5 4 4 4 3 4 3 3 3 3 2 2 1 1 1 1 1
Wind_Speed_500mb
5 5 8 16 14 15 29 29 8 5 11 4 11 8 12 27 11 8 19 19 42 53 58 52 57 55 53 51 46 43 39 38 37 32 26 24 27 30 32 32 33 34 38 40 38 37 38 40 42
6 9 11 21 15 25 24 35 8 15 20 4 7 14 21 22 10 16 19 22 45 51 60 54 58 54 52 52 49 46 41 40 38 33 26 24 27 30 31 32 35 36 37 36 34 34 37 39 42
5 12 23 12 25 27 22 14 7 17 8 8 8 6 8 6 5 8 14 34 49 51 59 56 57 55 52 53 53 49 44 41 39 34 28 26 29 31 32 34 36 37 36 34 35 35 37 39 41
8 16 19 19 33 26 26 12 10 13 10 5 7 15 6 4 2 5 21 40 52 52 56 60 58 57 52 52 54 51 46 43 41 35 30 29 31 32 34 36 37 38 37 35 36 36 34 35 38
16 23 25 30 37 38 31 15 11 19 14 14 15 14 8 4 4 6 23 41 50 55 55 65 61 59 54 51 53 52 46 45 42 37 33 32 32 32 35 37 37 37 36 34 33 32 30 31 34
27 23 26 30 38 35 29 12 22 28 30 24 19 26 15 3 3 9 24 41 48 56 59 70 65 61 57 50 51 51 47 47 43 38 35 34 34 34 35 37 37 37 35 33 31 31 29 29 30
31 24 32 40 39 33 22 7 15 28 32 32 26 27 4 4 3 13 27 40 47 53 54 73 69 64 59 53 48 50 49 48 44 40 37 35 35 35 35 37 37 36 34 32 30 28 26 26 27
34 25 47 38 35 44 35 25 20 31 29 31 16 15 10 12 5 16 29 40 47 52 46 75 72 68 64 57 50 50 51 48 45 42 39 37 35 35 34 34 36 35 33 31 29 28 26 25 25
28 26 32 43 41 36 34 15 17 17 28 30 24 24 13 7 5 20 30 41 48 50 48 60 69 72 68 63 58 52 51 48 46 44 42 40 39 39 37 35 35 36 32 29 27 25 24 23 23
37 29 47 36 37 33 37 40 35 40 34 30 34 16 10 4 7 21 33 43 49 51 54 58 62 70 71 63 65 61 57 54 51 50 49 44 37 38 35 37 37 35 33 30 27 24 22 20 18
46 46 42 49 52 31 42 47 45 46 44 34 26 26 27 13 9 19 32 40 48 49 53 58 62 70 69 59 73 68 65 60 57 55 53 41 37 36 37 40 41 38 35 31 29 27 26 19 14
46 59 57 53 53 55 41 48 52 49 49 49 47 25 25 21 16 21 30 40 46 54 58 59 60 67 70 60 71 58 60 60 53 54 58 46 42 42 37 33 37 37 37 27 27 25 19 21 21
42 44 57 53 55 57 50 55 59 69 59 54 48 45 42 42 35 30 27 37 44 57 63 64 63 68 72 67 62 59 57 56 53 53 62 48 43 46 40 35 35 31 30 29 27 24 24 23 22
41 57 54 49 51 54 50 52 51 94 64 69 65 63 62 59 51 43 34 34 45 56 66 68 68 68 74 66 66 65 61 55 55 53 57 58 49 48 43 39 37 34 33 31 29 27 24 23 22
40 44 46 56 51 55 57 53 60 98 66 65 69 63 64 67 62 62 59 53 48 57 65 74 76 72 74 72 67 63 59 55 56 52 57 63 56 52 45 40 40 37 36 36 32 30 25 22 22
45 46 48 46 45 56 63 64 54 69 69 65 67 72 66 68 66 60 60 59 58 59 71 78 79 80 79 79 69 66 59 57 54 53 54 66 62 53 53 43 42 39 37 36 33 32 29 26 24
37 41 53 55 44 38 41 57 41 48 57 63 66 68 69 70 70 67 65 57 58 60 68 80 86 86 87 83 71 69 63 62 55 54 53 63 65 55 56 45 43 46 39 38 36 33 32 29 26
37 41 43 47 38 37 49 58 48 58 52 55 61 50 72 63 62 57 63 67 64 62 68 79 86 89 91 85 79 72 66 64 59 57 55 60 67 63 62 49 48 50 43 40 39 37 35 32 30
34 39 48 48 48 48 50 55 53 57 62 59 62 56 63 65 66 77 77 67 71 70 68 77 87 95 90 95 92 80 84 77 71 65 61 63 70 68 69 54 56 56 51 47 49 45 40 37 35
33 39 43 46 45 43 50 56 56 52 60 66 73 72 62 62 65 54 53 61 65 73 73 74 82 93 98 98 101 93 86 77 73 69 69 67 67 70 74 67 61 62 53 57 54 53 44 42 44
34 37 40 44 43 46 45 57 54 59 69 74 76 75 83 67 69 66 69 59 62 69 72 74 79 93 102 92 89 84 73 70 71 73 78 78 71 75 76 76 66 66 63 64 66 64 59 52 50
34 37 39 41 38 37 38 39 48 45 47 50 80 87 85 84 83 79 72 73 62 64 69 72 77 88 97 99 88 89 89 88 86 89 85 79 75 71 77 78 82 69 73 67 69 65 67 57 57
30 30 36 43 43 45 46 29 35 40 48 50 52 69 78 84 86 87 87 79 69 65 67 72 75 87 93 94 93 92 91 87 81 77 70 92 75 79 77 78 80 82 80 77 73 68 69 71 61
31 31 37 44 38 32 45 40 40 39 45 45 41 61 72 63 66 80 89 87 78 64 70 74 79 82 92 93 96 90 95 89 83 78 80 79 87 82 88 84 88 90 91 89 83 78 74 75 73
20 30 17 25 15 22 34 31 32 23 37 28 31 43 46 70 68 58 71 81 83 77 67 76 78 81 88 93 96 100 94 98 88 86 84 82 79 94 93 96 94 96 98 95 88 86 84 79 77
32 28 12 16 21 32 38 25 14 38 51 50 46 57 60 65 60 44 63 64 78 78 70 76 77 81 85 94 101 101 93 94 96 92 84 85 82 78 90 101 101 100 101 100 93 90 91 89 85
25 26 31 25 35 26 26 25 14 48 43 45 53 54 58 64 70 66 52 57 70 73 82 67 83 83 83 91 95 98 105 95 95 89 92 89 84 80 75 92 95 101 101 102 103 101 95 91 90
18 23 17 6 12 19 27 24 15 22 42 41 44 59 62 61 69 69 76 55 64 71 79 73 69 83 87 86 92 100 104 106 103 96 96 92 91 84 74 78 80 86 95 101 103 105 105 101 100
28 22 5 11 14 11 16 19 24 32 46 43 38 55 56 58 66 72 81 71 58 66 66 76 74 78 87 89 90 97 100 102 100 97 97 97 91 86 85 82 79 80 88 91 101 105 104 106 103
25 12 23 8 22 25 25 33 28 43 48 52 55 55 53 54 64 72 81 51 31 53 65 67 67 82 86 87 93 97 100 95 96 99 101 98 96 93 91 87 86 85 84 88 93 98 104 104 105
Wind_Direction_500mb
285 260 297 263 243 230 258 241 271 248 217 37 334 225 288 293 16 38 131 147 159 162 160 165 164 165 172 172 176 177 176 172 166 163 150 142 137 137 135 130 126 125 124 121 116 110 106 98 94
181 243 253 274 254 247 244 221 136 237 71 352 253 260 262 271 289 108 134 152 162 164 161 167 166 166 173 175 179 181 181 177 171 165 159 152 148 146 141 136 133 133 130 127 122 116 109 102 98
193 234 264 239 238 257 275 68 286 128 150 267 263 246 340 10 206 105 157 157 162 165 165 169 168 168 174 181 180 184 183 181 174 170 165 162 156 151 144 141 139 138 135 131 125 122 115 108 102
235 228 246 250 257 254 283 30 28 292 213 226 297 283 229 347 39 196 162 161 164 167 165 168 170 170 175 181 180 184 184 184 180 175 173 166 158 155 148 146 144 143 141 134 129 124 118 115 109
236 259 254 240 248 255 274 288 323 303 268 226 232 292 273 96 194 174 165 171 170 168 176 172 172 172 176 183 183 184 185 184 183 180 178 168 162 158 153 151 150 148 143 137 132 125 119 122 115
239 246 249 252 249 251 249 285 282 272 271 228 249 267 263 81 54 191 174 174 174 169 187 178 173 175 175 185 187 185 185 184 184 186 179 173 165 162 159 155 155 153 146 142 138 130 123 124 125
246 249 250 265 272 270 270 230 266 275 264 245 247 249 201 106 108 170 173 176 175 173 188 179 176 179 177 181 190 186 185 185 186 185 180 176 170 167 163 161 161 158 155 151 145 138 130 126 131
250 263 267 256 261 270 280 307 251 256 264 247 253 257 235 51 120 165 172 176 176 178 182 180 180 179 178 180 186 188 186 188 187 185 180 178 175 169 167 167 166 167 167 162 157 153 149 140 133
246 250 249 255 255 260 271 272 262 275 272 265 246 251 9 20 159 168 175 177 180 184 184 180 181 181 180 180 181 187 188 190 190 186 183 180 178 174 171 176 175 176 176 172 167 165 164 159 148
235 247 248 253 267 283 277 268 270 286 271 233 248 212 249 288 192 189 187 186 187 189 187 184 182 181 182 181 181 185 190 191 190 189 185 183 184 174 170 185 183 183 183 182 178 175 171 162 165
235 247 263 280 283 272 273 271 267 263 265 251 257 235 208 230 226 215 207 200 197 196 192 189 186 185 181 180 184 185 190 191 191 193 188 175 185 175 176 197 188 190 189 190 185 181 170 135 173
250 259 266 273 278 279 270 262 264 262 262 266 264 268 268 210 245 235 222 210 203 201 198 193 191 189 182 186 187 184 188 190 188 190 189 179 185 188 182 191 190 192 194 190 186 186 172 190 173
270 275 279 279 275 271 267 261 273 271 260 261 265 263 260 257 261 242 231 219 212 206 201 196 194 195 185 188 185 185 187 190 188 190 191 187 184 193 185 192 186 188 195 195 189 194 192 187 179
284 296 288 288 280 276 271 268 265 262 258 260 260 258 257 255 251 247 232 225 216 210 204 198 197 199 191 189 190 188 186 193 188 193 196 186 184 201 187 193 188 191 196 197 195 198 194 188 184
287 288 280 265 259 255 258 258 247 260 270 270 263 248 251 252 249 244 241 239 227 214 206 202 200 201 197 190 196 192 194 195 194 196 202 192 185 209 190 192 190 193 196 196 194 196 190 188 187
274 270 268 269 258 254 238 255 253 255 260 260 256 254 247 253 251 246 238 238 231 220 210 206 203 203 202 194 197 194 197 197 198 198 202 203 195 207 189 194 194 195 196 194 193 193 191 190 189
248 257 266 273 267 263 242 256 267 265 257 264 260 258 249 247 246 243 242 238 231 220 213 209 205 203 205 197 198 197 199 198 201 201 204 211 203 202 196 196 198 195 196 198 194 195 193 193 192
288 289 286 280 281 273 264 266 264 261 271 266 267 264 252 250 247 240 237 237 232 223 215 209 207 204 204 198 196 200 201 204 202 205 208 213 206 202 204 198 200 196 198 199 196 199 197 196 192
296 287 281 281 285 286 277 277 275 274 271 267 269 262 255 254 249 242 244 235 232 226 216 209 206 205 203 199 196 199 200 204 202 207 209 214 211 208 211 199 203 204 199 199 200 197 198 199 196
284 280 275 279 279 273 272 270 270 265 264 259 259 266 261 257 251 247 234 234 232 228 216 211 210 206 204 203 202 200 201 203 207 206 212 212 217 207 214 202 211 211 199 202 206 197 197 199 201
282 278 284 286 292 287 285 277 271 266 265 264 262 256 254 255 253 252 246 238 230 229 216 212 211 210 207 207 207 204 205 206 207 209 210 212 217 209 215 215 204 216 205 210 208 212 195 200 204
282 286 291 291 284 275 277 281 273 278 266 243 234 241 248 246 245 251 255 245 228 230 215 214 212 211 213 207 207 204 201 203 209 209 212 211 212 214 215 218 212 214 220 207 219 218 214 200 204
286 301 291 287 283 284 273 265 269 263 255 254 257 262 241 240 242 245 245 249 242 224 215 212 210 212 209 213 206 207 205 207 209 210 217 219 215 213 215 219 220 212 223 218 219 215 216 211 204
279 274 282 274 254 256 262 260 270 266 266 264 249 244 254 256 247 240 243 242 243 233 211 208 210 211 211 209 210 209 207 206 206 213 214 223 215 215 219 218 222 222 221 227 219 225 225 216 214
286 310 299 288 235 242 268 258 262 324 352 328 310 326 288 245 252 255 241 237 239 237 215 206 211 212 210 210 213 208 212 207 208 211 212 212 223 211 220 220 222 224 224 227 226 222 226 229 217
296 307 285 299 319 309 310 271 28 29 13 7 357 352 341 340 336 274 259 259 237 240 237 209 213 214 211 210 213 216 211 213 209 215 214 219 222 227 212 226 227 227 229 227 225 225 229 230 231
299 298 309 291 282 272 273 302 20 2 359 2 352 347 340 335 334 322 303 253 250 237 233 234 210 213 214 214 213 213 213 213 216 213 219 227 225 232 226 226 229 229 229 231 231 230 229 228 233
316 294 306 281 285 300 292 308 340 9 344 351 354 339 335 333 328 322 316 291 247 240 230 226 220 213 215 216 215 216 220 217 217 220 219 221 230 227 230 226 231 231 233 231 232 235 236 234 235
301 307 280 295 268 301 320 314 352 8 324 339 344 329 328 329 326 316 310 302 268 244 238 229 226 219 216 215 217 216 220 221 218 221 223 227 227 223 221 233 234 232 230 232 230 235 233 235 235
296 16 15 344 334 310 287 292 312 343 337 348 342 334 329 323 325 317 312 308 283 262 240 234 224 219 218 219 217 218 224 219 220 227 228 230 228 227 229 225 233 234 233 232 232 232 232 233 234
Wind_Speed_850mb
5 5 8 16 14 15 29 29 8 5 11 4 11 8 12 27 11 8 19 19 42 53 58 52 57 55 53 51 46 43 39 38 37 32 26 24 27 30 32 32 33 34 38 40 38 37 38 40 42
6 9 11 21 15 25 24 35 8 15 20 4 7 14 21 22 10 16 19 22 45 51 60 54 58 54 52 52 49 46 41 40 38 33 26 24 27 30 31 32 35 36 37 36 34 34 37 39 42
5 12 23 12 25 27 22 14 7 17 8 8 8 6 8 6 5 8 14 34 49 51 59 56 57 55 52 53 53 49 44 41 39 34 28 26 29 31 32 34 36 37 36 34 35 35 37 39 41
8 16 19 19 33 26 26 12 10 13 10 5 7 15 6 4 2 5 21 40 52 52 56 60 58 57 52 52 54 51 46 43 41 35 30 29 31 32 34 36 37 38 37 35 36 36 34 35 38
16 23 25 30 37 38 31 15 11 19 14 14 15 14 8 4 4 6 23 41 50 55 55 65 61 59 54 51 53 52 46 45 42 37 33 32 32 32 35 37 37 37 36 34 33 32 30 31 34
27 23 26 30 38 35 29 12 22 28 30 24 19 26 15 3 3 9 24 41 48 56 59 70 65 61 57 50 51 51 47 47 43 38 35 34 34 34 35 37 37 37 35 33 31 31 29 29 30
31 24 32 40 39 33 22 7 15 28 32 32 26 27 4 4 3 13 27 40 47 53 54 73 69 64 59 53 48 50 49 48 44 40 37 35 35 35 35 37 37 36 34 32 30 28 26 26 27
34 25 47 38 35 44 35 25 20 31 29 31 16 15 10 12 5 16 29 40 47 52 46 75 72 68 64 57 50 50 51 48 45 42 39 37 35 35 34 34 36 35 33 31 29 28 26 25 25
28 26 32 43 41 36 34 15 17 17 28 30 24 24 13 7 5 20 30 41 48 50 48 60 69 72 68 63 58 52 51 48 46 44 42 40 39 39 37 35 35 36 32 29 27 25 24 23 23
37 29 47 36 37 33 37 40 35 40 34 30 34 16 10 4 7 21 33 43 49 51 54 58 62 70 71 63 65 61 57 54 51 50 49 44 37 38 35 37 37 35 33 30 27 24 22 20 18
46 46 42 49 52 31 42 47 45 46 44 34 26 26 27 13 9 19 32 40 48 49 53 58 62 70 69 59 73 68 65 60 57 55 53 41 37 36 37 40 41 38 35 31 29 27 26 19 14
46 59 57 53 53 55 41 48 52 49 49 49 47 25 25 21 16 21 30 40 46 54 58 59 60 67 70 60 71 58 60 60 53 54 58 46 42 42 37 33 37 37 37 27 27 25 19 21 21
42 44 57 53 55 57 50 55 59 69 59 54 48 45 42 42 35 30 27 37 44 57 63 64 63 68 72 67 62 59 57 56 53 53 62 48 43 46 40 35 35 31 30 29 27 24 24 23 22
41 57 54 49 51 54 50 52 51 94 64 69 65 63 62 59 51 43 34 34 45 56 66 68 68 68 74 66 66 65 61 55 55 53 57 58 49 48 43 39 37 34 33 31 29 27 24 23 22
40 44 46 56 51 55 57 53 60 98 66 65 69 63 64 67 62 62 59 53 48 57 65 74 76 72 74 72 67 63 59 55 56 52 57 63 56 52 45 40 40 37 36 36 32 30 25 22 22
45 46 48 46 45 56 63 64 54 69 69 65 67 72 66 68 66 60 60 59 58 59 71 78 79 80 79 79 69 66 59 57 54 53 54 66 62 53 53 43 42 39 37 36 33 32 29 26 24
37 41 53 55 44 38 41 57 41 48 57 63 66 68 69 70 70 67 65 57 58 60 68 80 86 86 87 83 71 69 63 62 55 54 53 63 65 55 56 45 43 46 39 38 36 33 32 29 26
37 41 43 47 38 37 49 58 48 58 52 55 61 50 72 63 62 57 63 67 64 62 68 79 86 89 91 85 79 72 66 64 59 57 55 60 67 63 62 49 48 50 43 40 39 37 35 32 30
34 39 48 48 48 48 50 55 53 57 62 59 62 56 63 65 66 77 77 67 71 70 68 77 87 95 90 95 92 80 84 77 71 65 61 63 70 68 69 54 56 56 51 47 49 45 40 37 35
33 39 43 46 45 43 50 56 56 52 60 66 73 72 62 62 65 54 53 61 65 73 73 74 82 93 98 98 101 93 86 77 73 69 69 67 67 70 74 67 61 62 53 57 54 53 44 42 44
34 37 40 44 43 46 45 57 54 59 69 74 76 75 83 67 69 66 69 59 62 69 72 74 79 93 102 92 89 84 73 70 71 73 78 78 71 75 76 76 66 66 63 64 66 64 59 52 50
34 37 39 41 38 37 38 39 48 45 47 50 80 87 85 84 83 79 72 73 62 64 69 72 77 88 97 99 88 89 89 88 86 89 85 79 75 71 77 78 82 69 73 67 69 65 67 57 57
30 30 36 43 43 45 46 29 35 40 48 50 52 69 78 84 86 87 87 79 69 65 67 72 75 87 93 94 93 92 91 87 81 77 70 92 75 79 77 78 80 82 80 77 73 68 69 71 61
31 31 37 44 38 32 45 40 40 39 45 45 41 61 72 63 66 80 89 87 78 64 70 74 79 82 92 93 96 90 95 89 83 78 80 79 87 82 88 84 88 90 91 89 83 78 74 75 73
20 30 17 25 15 22 34 31 32 23 37 28 31 43 46 70 68 58 71 81 83 77 67 76 78 81 88 93 96 100 94 98 88 86 84 82 79 94 93 96 94 96 98 95 88 86 84 79 77
32 28 12 16 21 32 38 25 14 38 51 50 46 57 60 65 60 44 63 64 78 78 70 76 77 81 85 94 101 101 93 94 96 92 84 85 82 78 90 101 101 100 101 100 93 90 91 89 85
25 26 31 25 35 26 26 25 14 48 43 45 53 54 58 64 70 66 52 57 70 73 82 67 83 83 83 91 95 98 105 95 95 89 92 89 84 80 75 92 95 101 101 102 103 101 95 91 90
18 23 17 6 12 19 27 24 15 22 42 41 44 59 62 61 69 69 76 55 64 71 79 73 69 83 87 86 92 100 104 106 103 96 96 92 91 84 74 78 80 86 95 101 103 105 105 101 100
28 22 5 11 14 11 16 19 24 32 46 43 38 55 56 58 66 72 81 71 58 66 66 76 74 78 87 89 90 97 100 102 100 97 97 97 91 86 85 82 79 80 88 91 101 105 104 106 103
25 12 23 8 22 25 25 33 28 43 48 52 55 55 53 54 64 72 81 51 31 53 65 67 67 82 86 87 93 97 100 95 96 99 101 98 96 93 91 87 86 85 84 88 93 98 104 104 105
Wind_Direction_850mb
285 260 297 263 243 230 258 241 271 248 217 37 334 225 288 293 16 38 131 147 159 162 160 165 164 165 172 172 176 177 176 172 166 163 150 142 137 137 135 130 126 125 124 121 116 110 106 98 94
181 243 253 274 254 247 244 221 136 237 71 352 253 260 262 271 289 108 134 152 162 164 161 167 166 166 173 175 179 181 181 177 171 165 159 152 148 146 141 136 133 133 130 127 122 116 109 102 98
193 234 264 239 238 257 275 68 286 128 150 267 263 246 340 10 206 105 157 157 162 165 165 169 168 168 174 181 180 184 183 181 174 170 165 162 156 151 144 141 139 138 135 131 125 122 115 108 102
235 228 246 250 257 254 283 30 28 292 213 226 297 283 229 347 39 196 162 161 164 167 165 168 170 170 175 181 180 184 184 184 180 175 173 166 158 155 148 146 144 143 141 134 129 124 118 115 109
236 259 254 240 248 255 274 288 323 303 268 226 232 292 273 96 194 174 165 171 170 168 176 172 172 172 176 183 183 184 185 184 183 180 178 168 162 158 153 151 150 148 143 137 132 125 119 122 115
239 246 249 252 249 251 249 285 282 272 271 228 249 267 263 81 54 191 174 174 174 169 187 178 173 175 175 185 187 185 185 184 184 186 179 173 165 162 159 155 155 153 146 142 138 130 123 124 125
246 249 250 265 272 270 270 230 266 275 264 245 247 249 201 106 108 170 173 176 175 173 188 179 176 179 177 181 190 186 185 185 186 185 180 176 170 167 163 161 161 158 155 151 145 138 130 126 131
250 263 267 256 261 270 280 307 251 256 264 247 253 257 235 51 120 165 172 176 176 178 182 180 180 179 178 180 186 188 186 188 187 185 180 178 175 169 167 167 166 167 167 162 157 153 149 140 133
246 250 249 255 255 260 271 272 262 275 272 265 246 251 9 20 159 168 175 177 180 184 184 180 181 181 180 180 181 187 188 190 190 186 183 180 178 174 171 176 175 176 176 172 167 165 164 159 148
235 247 248 253 267 283 277 268 270 286 271 233 248 212 249 288 192 189 187 186 187 189 187 184 182 181 182 181 181 185 190 191 190 189 185 183 184 174 170 185 183 183 183 182 178 175 171 162 165
235 247 263 280 283 272 273 271 267 263 265 251 257 235 208 230 226 215 207 200 197 196 192 189 186 185 181 180 184 185 190 191 191 193 188 175 185 175 176 197 188 190 189 190 185 181 170 135 173
250 259 266 273 278 279 270 262 264 262 262 266 264 268 268 210 245 235 222 210 203 201 198 193 191 189 182 186 187 184 188 190 188 190 189 179 185 188 182 191 190 192 194 190 186 186 172 190 173
270 275 279 279 275 271 267 261 273 271 260 261 265 263 260 257 261 242 231 219 212 206 201 196 194 195 185 188 185 185 187 190 188 190 191 187 184 193 185 192 186 188 195 195 189 194 192 187 179
284 296 288 288 280 276 271 268 265 262 258 260 260 258 257 255 251 247 232 225 216 210 204 198 197 199 191 189 190 188 186 193 188 193 196 186 184 201 187 193 188 191 196 197 195 198 194 188 184
287 288 280 265 259 255 258 258 247 260 270 270 263 248 251 252 249 244 241 239 227 214 206 202 200 201 197 190 196 192 194 195 194 196 202 192 185 209 190 192 190 193 196 196 194 196 190 188 187
274 270 268 269 258 254 238 255 253 255 260 260 256 254 247 253 251 246 238 238 231 220 210 206 203 203 202 194 197 194 197 197 198 198 202 203 195 207 189 194 194 195 196 194 193 193 191 190 189
248 257 266 273 267 263 242 256 267 265 257 264 260 258 249 247 246 243 242 238 231 220 213 209 205 203 205 197 198 197 199 198 201 201 204 211 203 202 196 196 198 195 196 198 194 195 193 193 192
288 289 286 280 281 273 264 266 264 261 271 266 267 264 252 250 247 240 237 237 232 223 215 209 207 204 204 198 196 200 201 204 202 205 208 213 206 202 204 198 200 196 198 199 196 199 197 196 192
296 287 281 281 285 286 277 277 275 274 271 267 269 262 255 254 249 242 244 235 232 226 216 209 206 205 203 199 196 199 200 204 202 207 209 214 211 208 211 199 203 204 199 199 200 197 198 199 196
284 280 275 279 279 273 272 270 270 265 264 259 259 266 261 257 251 247 234 234 232 228 216 211 210 206 204 203 202 200 201 203 207 206 212 212 217 207 214 202 211 211 199 202 206 197 197 199 201
282 278 284 286 292 287 285 277 271 266 265 264 262 256 254 255 253 252 246 238 230 229 216 212 211 210 207 207 207 204 205 206 207 209 210 212 217 209 215 215 204 216 205 210 208 212 195 200 204
282 286 291 291 284 275 277 281 273 278 266 243 234 241 248 246 245 251 255 245 228 230 215 214 212 211 213 207 207 204 201 203 209 209 212 211 212 214 215 218 212 214 220 207 219 218 214 200 204
286 301 291 287 283 284 273 265 269 263 255 254 257 262 241 240 242 245 245 249 242 224 215 212 210 212 209 213 206 207 205 207 209 210 217 219 215 213 215 219 220 212 223 218 219 215 216 211 204
279 274 282 274 254 256 262 260 270 266 266 264 249 244 254 256 247 240 243 242 243 233 211 208 210 211 211 209 210 209 207 206 206 213 214 223 215 215 219 218 222 222 221 227 219 225 225 216 214
286 310 299 288 235 242 268 258 262 324 352 328 310 326 288 245 252 255 241 237 239 237 215 206 211 212 210 210 213 208 212 207 208 211 212 212 223 211 220 220 222 224 224 227 226 222 226 229 217
296 307 285 299 319 309 310 271 28 29 13 7 357 352 341 340 336 274 259 259 237 240 237 209 213 214 211 210 213 216 211 213 209 215 214 219 222 227 212 226 227 227 229 227 225 225 229 230 231
299 298 309 291 282 272 273 302 20 2 359 2 352 347 340 335 334 322 303 253 250 237 233 234 210 213 214 214 213 213 213 213 216 213 219 227 225 232 226 226 229 229 229 231 231 230 229 228 233
316 294 306 281 285 300 292 308 340 9 344 351 354 339 335 333 328 322 316 291 247 240 230 226 220 213 215 216 215 216 220 217 217 220 219 221 230 227 230 226 231 231 233 231 232 235 236 234 235
301 307 280 295 268 301 320 314 352 8 324 339 344 329 328 329 326 316 310 302 268 244 238 229 226 219 216 215 217 216 220 221 218 221 223 227 227 223 221 233 234 232 230 232 230 235 233 235 235
296 16 15 344 334 310 287 292 312 343 337 348 342 334 329 323 325 317 312 308 283 262 240 234 224 219 218 219 217 218 224 219 220 227 228 230 228 227 229 225 233 234 233 232 232 232 232 233 234